Regional Weather Roundup
Issued by NWS

Home | Current Version | Previous Version | Text Only | Print | Product List | Glossary Off
Versions: 1 2 3 4 5 6 7 8 9 10 11 12 13 14 15 16 17 18 19 20 21 22 23 24 25 26 27 28 29 30 31 32 33 34 35 36 37 38 39 40 41 42 43 44 45 46 47 48 49 50

000
ASUS43 KOAX 042002
RWRNE

WEATHER ROUNDUP FOR NEBRASKA
NATIONAL WEATHER SERVICE OMAHA NE
200 PM CST WED MAR 04 2015

NOTES: SATELLITE DATA IS BEING USED TO AUGMENT CLOUD COVER ABOVE
       12000 FEET.
       "FAIR" INDICATES FEW OR NO CLOUDS BELOW 12,000 FEET WITH NO
       SIGNIFICANT WEATHER AND/OR OBSTRUCTIONS TO VISIBILITY.

  * THESE STATIONS DO NOT REPORT WEATHER SUCH AS RAIN...SNOW OR FOG.

NEZ001>004-019>022-054>056-042100-
NEBRASKA PANHANDLE

CITY           SKY/WX    TMP DP  RH WIND       PRES   REMARKS
SCOTTSBLUFF    SUNNY     25   4  40 NW12G18   30.18  WCI  14
ALLIANCE       SUNNY     22   1  40 NW20G28   30.16  WCI   7
CHADRON        SUNNY     18   3  52 W20       30.23  WCI   2
KIMBALL        SUNNY     23   1  37 W9G18     30.10F WCI  13
SIDNEY         MOSUNNY   23   4  44 NW13G23   30.16  WCI  11
$$

NEZ057>060-069>072-079>082-042100-
SOUTHWEST NEBRASKA

CITY           SKY/WX    TMP DP  RH WIND       PRES   REMARKS
NORTH PLATTE   MOSUNNY   30   1  29 NW18G28   30.21  WCI  18
IMPERIAL         N/A     27   7  42 NW17G23   30.21  WCI  14
LEXINGTON      SUNNY     29   9  43 NW10G24   30.24F WCI  19
MCCOOK         MOSUNNY   30  11  45 NW12      30.24  WCI  20
$$

NEZ005>010-023>029-035>040-094-042100-
NORTH CENTRAL NEBRASKA

CITY           SKY/WX    TMP DP  RH WIND       PRES   REMARKS
VALENTINE      SUNNY     19   0  43 NW18G26   30.25F WCI   4
AINSWORTH      MOSUNNY   19  -2  40 NW18G26   30.24F WCI   3
BROKEN BOW     MOSUNNY   27  -1  30 NW15G26   30.22  WCI  15
ORD            MOSUNNY   28  -4  25 NW15G24   30.25  WCI  16
$$

NEZ041-046>049-061>064-073>077-083>087-042100-
SOUTH CENTRAL NEBRASKA

CITY           SKY/WX    TMP DP  RH WIND       PRES   REMARKS
GRAND ISLAND   PTSUNNY   27   7  42 NW18G26   30.27  WCI  14
HASTINGS       MOSUNNY   28   8  43 NW18      30.26  WCI  15
KEARNEY *      CLOUDY    28  10  47 N16       30.25F WCI  17
$$

NEZ011>018-030>034-042>045-042100-
NORTHEAST NEBRASKA

CITY           SKY/WX    TMP DP  RH WIND       PRES   REMARKS
NORFOLK        SUNNY     25  -5  26 NW20G33   30.27  WCI  11
BLAIR          SUNNY     29  -2  27 NW20G26   30.26F WCI  16
COLUMBUS *     SUNNY     28  -2  26 NW23G31   30.29F WCI  14
FREMONT        SUNNY     30  -3  23 NW21G29   30.29F WCI  18
TEKAMAH        SUNNY     28  -3  26 NW30      30.29  WCI  12
$$

NEZ050>053-065>068-078-088>093-042100-
SOUTHEAST NEBRASKA

CITY           SKY/WX    TMP DP  RH WIND       PRES   REMARKS
LINCOLN        PTSUNNY   29   4  34 N16       30.29  WCI  17
OMAHA EPPLEY   MOSUNNY   30  -1  26 NW20G33   30.27  WCI  17
FALLS CITY     PTSUNNY   30   5  34 NW8G18    30.29  WCI  22
$$

NEZ044-045-051>053-067-042100-
OMAHA AREA

CITY           SKY/WX    TMP DP  RH WIND       PRES   REMARKS
OMAHA EPPLEY   MOSUNNY   30  -1  26 NW20G33   30.27  WCI  17
BLAIR          SUNNY     29  -2  27 NW20G26   30.26F WCI  16
FREMONT        SUNNY     30  -3  23 NW21G29   30.29F WCI  18
OFFUTT AFB     SUNNY     31   1  27 NW16G29   30.26F WCI  20
$$


USA.gov is the U.S. government's official web portal to all federal, state and local government web resources and services.